Regional Weather Roundup
Issued by NWS

Home | Current Version | Previous Version | Graphics & Text | Print | Product List | Glossary Off
Versions: 1 2 3 4 5 6 7 8 9 10 11 12 13 14 15 16 17 18 19 20 21 22 23 24 25 26 27 28 29 30 31 32 33 34 35 36 37 38 39 40 41 42 43 44 45 46 47 48 49 50

000
ASUS43 KDTX 251801
RWRMI
MICHIGAN HOURLY REGIONAL WEATHER ROUNDUP
NATIONAL WEATHER SERVICE DETROIT/PONTIAC MI
200 PM EDT WED APR 25 2018

NOTE: "FAIR" INDICATES FEW OR NO CLOUDS BELOW 12,000 FEET WITH NO
SIGNIFICANT WEATHER AND/OR OBSTRUCTION TO VISIBILITY.

MIZ047>049-052>055-059>063-066>070-074>076-081>083-251900-
SOUTHEAST LOWER MICHIGAN

CITY           SKY/WX    TMP DP  RH WIND       PRES   REMARKS
ADRIAN         FAIR      59  40  49 NW12G24   29.93F
6HR MIN TEMP:  47; 6HR MAX TEMP:  60;

ANN ARBOR      FAIR      59  40  49 NW17      29.92F
BAD AXE        CLOUDY    43  38  80 N17       29.97F
6HR MIN TEMP:  43; 6HR MAX TEMP:  46;

CARO           CLOUDY    45  39  81 N12       29.97S
DETROIT CITY   PTSUNNY   58  41  53 NW14G25   29.92F
6HR MIN TEMP:  48; 6HR MAX TEMP:  58;

DETROIT        PTSUNNY   60  40  47 N16G23    29.91F
6HR MIN TEMP:  49; 6HR MAX TEMP:  60;

FLINT          CLOUDY    53  40  61 N14       29.95F
6HR MIN TEMP:  44; 6HR MAX TEMP:  54;

GROSSE ILE     CLOUDY    58  44  58 N14       29.90F
6HR MIN TEMP:  49; 6HR MAX TEMP:  59; 6HR PCP:  0.01;

HILLSDALE      FAIR      59  37  44 N15       29.93F
HOWELL         PTSUNNY   55  40  56 NW9       29.93F
6HR MIN TEMP:  44; 6HR MAX TEMP:  56;


CITY           SKY/WX    TMP DP  RH WIND       PRES   REMARKS
JACKSON        PTSUNNY   57  38  48 NW12      29.94F
6HR MIN TEMP:  45; 6HR MAX TEMP:  58;

LAMBERTVILLE   PTSUNNY   59  43  55 N13G18    29.92F
6HR MIN TEMP:  51; 6HR MAX TEMP:  60;

LANSING        FAIR      57  36  45 N12G20    29.96F
6HR MIN TEMP:  44; 6HR MAX TEMP:  57;

LAPEER         CLOUDY    48  40  74 N13G18    29.96S
6HR MIN TEMP:  42; 6HR MAX TEMP:  48;

MASON          PTSUNNY   57  34  41 NW16G22   29.95F
6HR MIN TEMP:  45; 6HR MAX TEMP:  58;

MONROE         CLOUDY    58  43  56 N15G22    29.90F
6HR MIN TEMP:  49; 6HR MAX TEMP:  59;

MT. CLEMENS    PTSUNNY   53  48  85 N15G23    29.91F
6HR MIN TEMP:  46; 6HR MAX TEMP:  54; 6HR PCP: TRACE;

PONTIAC        PTSUNNY   53  40  61 N20       29.93S
6HR MIN TEMP:  44; 6HR MAX TEMP:  54;

PORT HOPE        N/A     38  37  97 NW17      29.96S WCI  28
6HR MIN TEMP:  38; 6HR MAX TEMP:  40; 6HR PCP:  0.02;

PORT HURON     CLOUDY    46  41  81 NW12G18   29.94S
TRI CITIES     CLOUDY    50  41  71 NE10      29.98S
6HR MIN TEMP:  43; 6HR MAX TEMP:  53;

MIDLAND        CLOUDY    52  37  57 N12       29.97F
6HR MIN TEMP:  42; 6HR MAX TEMP:  53;

TROY           CLOUDY    55  42  60 NW14G21   29.94S
SAGINAW HB     CLOUDY    48  41  76 NE12      29.98S
$$
MIZ043>046-050>051-056>058-064>065-071>073-077>080-251900-
SOUTHWEST LOWER MICHIGAN

CITY           SKY/WX    TMP DP  RH WIND       PRES   REMARKS
BATTLE CREEK   FAIR      58  34  40 N12G22    29.97F
6HR MIN TEMP:  46; 6HR MAX TEMP:  59;

BENTON HARBOR  FAIR      45  35  68 N9G20     30.07S
6HR MIN TEMP:  42; 6HR MAX TEMP:  45;

BIG RAPIDS     FAIR      51  29  43 N13G18    30.00F
6HR MIN TEMP:  40; 6HR MAX TEMP:  51;

COLDWATER      FAIR      60  36  40 NW15G21   29.96S
6HR MIN TEMP:  47; 6HR MAX TEMP:  60;

FREMONT        FAIR      54  24  31 NW14      30.01F
6HR MIN TEMP:  42; 6HR MAX TEMP:  55;

HOLLAND        FAIR      50  34  54 NW16G24   30.03F
6HR MIN TEMP:  45; 6HR MAX TEMP:  54;

GRAND RAPIDS   FAIR      58  32  37 NW9       29.98F
6HR MIN TEMP:  44; 6HR MAX TEMP:  59;

IONIA          FAIR      56  32  40 N10G17    29.97F
6HR MIN TEMP:  43; 6HR MAX TEMP:  56;

KALAMAZOO      FAIR      59  34  39 NW10G25   29.99F
6HR MIN TEMP:  46; 6HR MAX TEMP:  60;

LUDINGTON      FAIR      45  35  67 N13G21    30.07S
6HR MIN TEMP:  38; 6HR MAX TEMP:  45;

MARSHALL       FAIR      57  32  38 NW9G17    29.96S
6HR MIN TEMP:  45; 6HR MAX TEMP:  58;

MOUNT PLEASANT PTSUNNY   55  35  48 NW7G16    29.98F
6HR MIN TEMP:  44; 6HR MAX TEMP:  55;

MUSKEGON       FAIR      51  34  52 NW16      30.02F
6HR MIN TEMP:  45; 6HR MAX TEMP:  56;

SOUTH HAVEN    FAIR      46  36  67 NW13G22   30.05S
$$
MIZ016>042-251900-
NORTHERN LOWER MICHIGAN

CITY           SKY/WX    TMP DP  RH WIND       PRES   REMARKS
ALPENA         CLOUDY    39  37  92 N14       30.02F WCI  31
6HR MIN TEMP:  37; 6HR MAX TEMP:  39; 6HR PCP:  0.12;

BEAVER ISLAND  CLOUDY    47  30  51 N9G18     30.07F
6HR MIN TEMP:  37; 6HR MAX TEMP:  47;

BELLAIRE       CLOUDY    44  33  64 N6        30.05F
6HR MIN TEMP:  36; 6HR MAX TEMP:  44;

CADILLAC       CLOUDY    42  33  69 N13G20    30.02F
CHARLEVOIX     CLOUDY    39  33  76 N9        30.09F WCI  33
6HR MIN TEMP:  36; 6HR MAX TEMP:  41;

FRANKFORT      PTSUNNY   45  32  61 NW14G20   30.10R
GAYLORD        CLOUDY    39  34  82 VRB7      30.01F WCI  34
6HR MIN TEMP:  35; 6HR MAX TEMP:  39;

GRAYLING       CLOUDY    44  35  69 N14       30.00S
6HR MIN TEMP:  37; 6HR MAX TEMP:  45;

HARBOR SPRINGS CLOUDY    43  32  63 N9        30.04F
HOUGHTON LAKE  CLOUDY    45  34  65 N9G20     30.00F
6HR MIN TEMP:  41; 6HR MAX TEMP:  48;

MANISTEE       FAIR      44  34  67 NW18      30.08S
OSCODA         CLOUDY    43  38  81 NW14      29.98F
6HR MIN TEMP:  40; 6HR MAX TEMP:  44;

PELLSTON       CLOUDY    44  32  62 N10       30.05F
6HR MIN TEMP:  35; 6HR MAX TEMP:  45;

ROGERS CITY    CLOUDY    39  34  80 NW12      30.04F WCI  32
TRAVERSE CITY  CLOUDY    45  33  63 N13G21    30.06F
6HR MIN TEMP:  38; 6HR MAX TEMP:  45;

$$
MIZ007>008-015-251900-
EASTERN UPPER MICHIGAN

CITY           SKY/WX    TMP DP  RH WIND       PRES   REMARKS
KINROSS        CLOUDY    41  30  65 NW17G23   30.04F
6HR MIN TEMP:  38; 6HR MAX TEMP:  41;

MACKINAC ISLAN CLOUDY    44  31  61 N9        30.04F
6HR MIN TEMP:  37; 6HR MAX TEMP:  46;

NEWBERRY       FAIR      39  28  63 N12G20    30.07S WCI  32
6HR MIN TEMP:  33; 6HR MAX TEMP:  40;

MUNISING         N/A     35  29  78 NW18      30.13F WCI  24
6HR MIN TEMP:  34; 6HR MAX TEMP:  37;

$$
MIZ004>006-011>014-085-251900-
CENTRAL UPPER MICHIGAN

CITY           SKY/WX    TMP DP  RH WIND       PRES   REMARKS
MANISTIQUE     FAIR      47  27  46 NW13G25   30.08S
6HR MIN TEMP:  34; 6HR MAX TEMP:  47;

ESCANABA       FAIR      47  24  40 NW12G23   30.11F
6HR MIN TEMP:  34; 6HR MAX TEMP:  48;

MENOMINEE      FAIR      44  28  53 E9        30.13F
6HR MIN TEMP:  34; 6HR MAX TEMP:  45;

SAWYER-GWINN   SUNNY     37  27  65 N12       30.12F WCI  30
$$
MIZ001>003-009>011-084-251900-
WESTERN UPPER MICHIGAN

CITY           SKY/WX    TMP DP  RH WIND       PRES   REMARKS
IRON MOUNTAIN  FAIR      50  27  40 NW8       30.09F
6HR MIN TEMP:  31; 6HR MAX TEMP:  50;

HOUGHTON       FAIR      39  22  50 NW8       30.13F WCI  33
6HR MIN TEMP:  32; 6HR MAX TEMP:  39;

COPPER HARBOR    N/A     36  28  73 N7        30.14F WCI  30
6HR MIN TEMP:  34; 6HR MAX TEMP:  36;

IRONWOOD       FAIR      43  24  47 NW8       30.16F
6HR MIN TEMP:  26; 6HR MAX TEMP:  43;

$$

ABBREVIATIONS USED IN REMARKS
   TC - TEMPERATURE IN CELSIUS
  WCI - WIND CHILL INDEX
   HX - HEAT INDEX
  VSB - VISIBILITY




USA.gov is the U.S. government's official web portal to all federal, state and local government web resources and services.